Weather History for KIDP - April, 2013

Change the Weather History Date:

Monday, April 8, 2013

  Actual Average (KCFV) Record (KCFV)
Temperature  
Mean Temperature 64 °F -  
Max Temperature 69 °F 64 °F 86 °F (2011)
Min Temperature 59 °F 42 °F 23 °F (2007)
Degree Days  
Heating Degree Days 1    
Growing Degree Days 14 (Base 50)    
Moisture  
Dew Point 58 °F    
Average Humidity 77    
Maximum Humidity 88    
Minimum Humidity 68    
Precipitation  
Precipitation 0.00 in - - ()
Sea Level Pressure  
Sea Level Pressure 29.69 in    
Wind  
Wind Speed 15 mph (SSE)    
Max Wind Speed 25 mph    
Max Gust Speed 33 mph    
Visibility 10 miles    
Events      
Averages and records for this station are not official NWS values.
T = Trace of Precipitation, MM = Missing Value Source: NWS Daily Summary

Daily Weather History Graph

Daily Weather History Graph

Search for Another Location

Airport or City:

Trip Planner

Search our weather history database for the weather conditions in past years. The results will help you decide how hot, cold, wet, or windy it might be!

Date:

Astronomy

Apr. 08, 2013 Rise Set
Actual Time 6:58 AM CDT 7:52 PM CDT
Civil Twilight 6:31 AM CDT 8:18 PM CDT
Nautical Twilight 6:00 AM CDT 8:50 PM CDT
Astronomical Twilight 5:27 AM CDT 9:22 PM CDT
Moon 5:46 AM CDT (4/8) 6:28 PM CDT (4/8)
Length of Visible Light 13h 47m
Length of Day
12h 53m
Waning Crescent, 3% of the Moon is Illuminated
Apr 8
Waning Crescent
Apr 10
New
Apr 18
First Quarter
Apr 25
Full
May 2
Last Quarter

Hourly Weather History & Observations

Time (CDT) Temp. Dew Point Humidity Pressure Visibility Wind Dir Wind Speed Gust Speed Precip Events Conditions
12:15 AM 62.6 °F 57.2 °F 82% 29.72 in 10.0 mi South 13.8 mph 19.6 mph N/A   Mostly Cloudy
12:35 AM 62.6 °F 57.2 °F 82% 29.72 in 10.0 mi South 16.1 mph - N/A   Overcast
12:55 AM 60.8 °F 55.4 °F 82% 29.72 in 10.0 mi South 17.3 mph - N/A   Mostly Cloudy
1:15 AM 60.8 °F 55.4 °F 82% 29.72 in 10.0 mi South 16.1 mph 19.6 mph N/A   Mostly Cloudy
1:35 AM 60.8 °F 55.4 °F 82% 29.72 in 10.0 mi South 15.0 mph - N/A   Scattered Clouds
1:55 AM 60.8 °F 55.4 °F 82% 29.71 in 10.0 mi South 11.5 mph - N/A   Clear
2:15 AM 60.8 °F 55.4 °F 82% 29.70 in 10.0 mi South 12.7 mph - N/A   Clear
2:35 AM 60.8 °F 55.4 °F 82% 29.70 in 10.0 mi SSW 9.2 mph - N/A   Clear
2:55 AM 60.8 °F 55.4 °F 82% 29.69 in 10.0 mi South 9.2 mph - N/A   Clear
3:15 AM 59.0 °F 55.4 °F 88% 29.69 in 10.0 mi South 10.4 mph - N/A   Clear
3:35 AM 59.0 °F 55.4 °F 88% 29.70 in 10.0 mi SSW 6.9 mph - N/A   Scattered Clouds
3:55 AM 59.0 °F 55.4 °F 88% 29.69 in 10.0 mi South 8.1 mph - N/A   Scattered Clouds
4:15 AM 59.0 °F 55.4 °F 88% 29.69 in 10.0 mi South 5.8 mph - N/A   Scattered Clouds
4:35 AM 59.0 °F 55.4 °F 88% 29.69 in 10.0 mi South 6.9 mph - N/A   Mostly Cloudy
4:55 AM 60.8 °F 55.4 °F 82% 29.67 in 10.0 mi SSE 11.5 mph - N/A   Scattered Clouds
5:15 AM 60.8 °F 55.4 °F 82% 29.67 in 10.0 mi South 10.4 mph - N/A   Scattered Clouds
5:35 AM 62.6 °F 55.4 °F 77% 29.67 in 10.0 mi South 15.0 mph 21.9 mph N/A   Mostly Cloudy
5:55 AM 62.6 °F 55.4 °F 77% 29.67 in 10.0 mi South 15.0 mph - N/A   Overcast
6:15 AM 62.6 °F 55.4 °F 77% 29.68 in 10.0 mi SSE 20.7 mph 25.3 mph N/A   Overcast
6:35 AM 62.6 °F 55.4 °F 77% 29.68 in 10.0 mi South 20.7 mph - N/A   Mostly Cloudy
6:55 AM 62.6 °F 55.4 °F 77% 29.68 in 10.0 mi South 18.4 mph - N/A   Scattered Clouds
7:15 AM 62.6 °F 55.4 °F 77% 29.69 in 10.0 mi South 17.3 mph 27.6 mph N/A   Clear
7:35 AM 62.6 °F 55.4 °F 77% 29.70 in 10.0 mi South 18.4 mph 27.6 mph N/A   Scattered Clouds
7:55 AM 62.6 °F 57.2 °F 82% 29.71 in 10.0 mi South 21.9 mph 26.5 mph N/A   Mostly Cloudy
8:15 AM 62.6 °F 57.2 °F 82% 29.72 in 10.0 mi South 15.0 mph 26.5 mph N/A   Overcast
8:35 AM 64.4 °F 57.2 °F 77% 29.72 in 10.0 mi South 20.7 mph 27.6 mph N/A   Overcast
8:55 AM 64.4 °F 57.2 °F 77% 29.72 in 10.0 mi South 18.4 mph 25.3 mph N/A   Mostly Cloudy
9:15 AM 64.4 °F 59.0 °F 83% 29.72 in 10.0 mi South 21.9 mph 27.6 mph N/A   Mostly Cloudy
9:35 AM 64.4 °F 59.0 °F 83% 29.71 in 10.0 mi South 16.1 mph 28.8 mph N/A   Scattered Clouds
9:55 AM 64.4 °F 59.0 °F 83% 29.72 in 10.0 mi South 21.9 mph 28.8 mph N/A   Clear
10:15 AM 64.4 °F 59.0 °F 83% 29.72 in 10.0 mi South 21.9 mph 31.1 mph N/A   Scattered Clouds
10:35 AM 64.4 °F 59.0 °F 83% 29.72 in 10.0 mi South 21.9 mph 26.5 mph N/A   Mostly Cloudy
10:55 AM 64.4 °F 59.0 °F 83% 29.72 in 10.0 mi South 20.7 mph 27.6 mph N/A   Overcast
11:15 AM 64.4 °F 59.0 °F 83% 29.73 in 10.0 mi South 21.9 mph 27.6 mph N/A   Overcast
11:35 AM 64.4 °F 59.0 °F 83% 29.72 in 10.0 mi South 24.2 mph 27.6 mph N/A   Overcast
11:55 AM 66.2 °F 59.0 °F 78% 29.72 in 10.0 mi South 25.3 mph 33.4 mph N/A   Overcast
12:15 PM 66.2 °F 59.0 °F 78% 29.72 in 10.0 mi South 25.3 mph 32.2 mph N/A   Overcast
12:35 PM 68.0 °F 59.0 °F 73% 29.71 in 10.0 mi South 24.2 mph 32.2 mph N/A   Overcast
12:55 PM 68.0 °F 59.0 °F 73% 29.71 in 10.0 mi South 18.4 mph 28.8 mph N/A   Overcast
1:15 PM 68.0 °F 59.0 °F 73% 29.70 in 10.0 mi South 25.3 mph 31.1 mph N/A   Overcast
1:35 PM 68.0 °F 59.0 °F 73% 29.70 in 10.0 mi South 24.2 mph 28.8 mph N/A   Overcast
1:55 PM 68.0 °F 59.0 °F 73% 29.69 in 10.0 mi South 20.7 mph 29.9 mph N/A   Overcast
2:15 PM 68.0 °F 59.0 °F 73% 29.69 in 10.0 mi South 18.4 mph 25.3 mph N/A   Overcast
2:35 PM 68.0 °F 60.8 °F 78% 29.69 in 10.0 mi South 19.6 mph 26.5 mph N/A   Overcast
2:55 PM 68.0 °F 59.0 °F 73% 29.69 in 10.0 mi South 20.7 mph 24.2 mph N/A   Overcast
3:15 PM 69.8 °F 59.0 °F 68% 29.69 in 10.0 mi South 20.7 mph 25.3 mph N/A   Overcast
3:35 PM 69.8 °F 59.0 °F 68% 29.68 in 10.0 mi South 20.7 mph 25.3 mph N/A   Overcast
3:55 PM 68.0 °F 59.0 °F 73% 29.67 in 10.0 mi South 20.7 mph 25.3 mph N/A   Overcast
4:15 PM 68.0 °F 59.0 °F 73% 29.67 in 10.0 mi South 18.4 mph 23.0 mph N/A   Overcast
4:35 PM 69.8 °F 59.0 °F 68% 29.67 in 10.0 mi SSE 18.4 mph 23.0 mph N/A   Overcast
4:55 PM 69.8 °F 59.0 °F 68% 29.66 in 10.0 mi SSE 15.0 mph 19.6 mph N/A   Overcast
5:15 PM 69.8 °F 59.0 °F 68% 29.66 in 10.0 mi SSE 17.3 mph - N/A   Overcast
5:35 PM 69.8 °F 59.0 °F 68% 29.66 in 10.0 mi SSE 17.3 mph 23.0 mph N/A   Overcast
5:55 PM 69.8 °F 59.0 °F 68% 29.66 in 10.0 mi SSE 16.1 mph - N/A   Overcast
6:15 PM 69.8 °F 59.0 °F 68% 29.66 in 10.0 mi SSE 16.1 mph 20.7 mph N/A   Overcast
6:35 PM 69.8 °F 59.0 °F 68% 29.66 in 10.0 mi SE 13.8 mph 19.6 mph N/A   Overcast
6:55 PM 69.8 °F 59.0 °F 68% 29.66 in 10.0 mi SE 12.7 mph - N/A   Overcast
7:15 PM 68.0 °F 59.0 °F 73% 29.67 in 10.0 mi SE 15.0 mph - N/A   Overcast
7:35 PM 68.0 °F 59.0 °F 73% 29.67 in 10.0 mi SE 11.5 mph - N/A   Overcast
7:55 PM 68.0 °F 59.0 °F 73% 29.67 in 10.0 mi SE 11.5 mph - N/A   Overcast
8:15 PM 68.0 °F 59.0 °F 73% 29.66 in 10.0 mi SE 10.4 mph - N/A   Overcast
8:35 PM 68.0 °F 59.0 °F 73% 29.66 in 10.0 mi SE 11.5 mph - N/A   Overcast
8:55 PM 68.0 °F 59.0 °F 73% 29.67 in 10.0 mi SE 10.4 mph - N/A   Overcast
9:15 PM 68.0 °F 59.0 °F 73% 29.67 in 10.0 mi SSE 8.1 mph - N/A   Overcast
9:35 PM 68.0 °F 59.0 °F 73% 29.67 in 10.0 mi SSE 10.4 mph - N/A   Overcast
9:55 PM 68.0 °F 59.0 °F 73% 29.68 in 10.0 mi SSE 11.5 mph - N/A   Overcast
10:15 PM 68.0 °F 59.0 °F 73% 29.68 in 10.0 mi SSE 11.5 mph - N/A   Overcast
10:35 PM 68.0 °F 59.0 °F 73% 29.69 in 10.0 mi SSE 8.1 mph - N/A   Overcast
10:55 PM 68.0 °F 59.0 °F 73% 29.68 in 10.0 mi SSE 10.4 mph - N/A   Overcast
11:15 PM 68.0 °F 59.0 °F 73% 29.67 in 10.0 mi SSE 10.4 mph - N/A   Overcast
11:35 PM 68.0 °F 59.0 °F 73% 29.67 in 10.0 mi SSE 11.5 mph - N/A   Overcast
11:55 PM 68.0 °F 59.0 °F 73% 29.67 in 10.0 mi SSE 12.7 mph - N/A   Overcast